[{"OBJECT_NAME":"EUTELSAT 174A","OBJECT_ID":"2005-052A","EPOCH":"2026-09-11T19:08:44.287584","MEAN_MOTION":1.00272399,"ECCENTRICITY":0.00059366,"INCLINATION":4.4324,"RA_OF_ASC_NODE":75.4077,"ARG_OF_PERICENTER":95.0003,"MEAN_ANOMALY":281.5614,"EPHEMERIS_TYPE":0,"CLASSIFICATION_TYPE":"U","NORAD_CAT_ID":28924,"ELEMENT_SET_NO":999,"REV_AT_EPOCH":5320,"BSTAR":0,"MEAN_MOTION_DOT":-5e-8,"MEAN_MOTION_DDOT":0},{"OBJECT_NAME":"EUTELSAT 33F","OBJECT_ID":"2006-032A","EPOCH":"2026-09-12T03:47:54.910752","MEAN_MOTION":1.00274041,"ECCENTRICITY":0.0003314,"INCLINATION":1.8804,"RA_OF_ASC_NODE":81.1512,"ARG_OF_PERICENTER":90.1992,"MEAN_ANOMALY":269.893,"EPHEMERIS_TYPE":0,"CLASSIFICATION_TYPE":"U","NORAD_CAT_ID":29270,"ELEMENT_SET_NO":999,"REV_AT_EPOCH":4817,"BSTAR":0,"MEAN_MOTION_DOT":0.00000141,"MEAN_MOTION_DDOT":0},{"OBJECT_NAME":"EUTELSAT HOTBIRD 13C","OBJECT_ID":"2008-065A","EPOCH":"2026-09-12T01:41:29.534208","MEAN_MOTION":1.00271073,"ECCENTRICITY":0.0003567,"INCLINATION":3.168,"RA_OF_ASC_NODE":78.0919,"ARG_OF_PERICENTER":100.2872,"MEAN_ANOMALY":147.7917,"EPHEMERIS_TYPE":0,"CLASSIFICATION_TYPE":"U","NORAD_CAT_ID":33459,"ELEMENT_SET_NO":999,"REV_AT_EPOCH":4821,"BSTAR":0,"MEAN_MOTION_DOT":-0.00000296,"MEAN_MOTION_DDOT":0},{"OBJECT_NAME":"EUTELSAT 36B","OBJECT_ID":"2009-065A","EPOCH":"2026-09-12T03:52:46.945344","MEAN_MOTION":1.00269708,"ECCENTRICITY":0.0005726,"INCLINATION":0.7047,"RA_OF_ASC_NODE":81.1747,"ARG_OF_PERICENTER":87.1215,"MEAN_ANOMALY":291.5791,"EPHEMERIS_TYPE":0,"CLASSIFICATION_TYPE":"U","NORAD_CAT_ID":36101,"ELEMENT_SET_NO":999,"REV_AT_EPOCH":6158,"BSTAR":0,"MEAN_MOTION_DOT":9.8e-7,"MEAN_MOTION_DDOT":0},{"OBJECT_NAME":"EUTELSAT KA-SAT 9A","OBJECT_ID":"2010-069A","EPOCH":"2026-09-12T03:40:55.581312","MEAN_MOTION":1.00272626,"ECCENTRICITY":0.0005432,"INCLINATION":0.074,"RA_OF_ASC_NODE":352.4093,"ARG_OF_PERICENTER":181.1661,"MEAN_ANOMALY":241.8272,"EPHEMERIS_TYPE":0,"CLASSIFICATION_TYPE":"U","NORAD_CAT_ID":37258,"ELEMENT_SET_NO":999,"REV_AT_EPOCH":4487,"BSTAR":0,"MEAN_MOTION_DOT":4.7e-7,"MEAN_MOTION_DDOT":0},{"OBJECT_NAME":"EUTELSAT 7 WEST A","OBJECT_ID":"2011-051A","EPOCH":"2026-09-12T03:36:18.524160","MEAN_MOTION":1.00271764,"ECCENTRICITY":0.0005982,"INCLINATION":0.0636,"RA_OF_ASC_NODE":348.2766,"ARG_OF_PERICENTER":184.9456,"MEAN_ANOMALY":224.6964,"EPHEMERIS_TYPE":0,"CLASSIFICATION_TYPE":"U","NORAD_CAT_ID":37816,"ELEMENT_SET_NO":999,"REV_AT_EPOCH":5474,"BSTAR":0,"MEAN_MOTION_DOT":-7.5e-7,"MEAN_MOTION_DDOT":0},{"OBJECT_NAME":"EUTELSAT 16A","OBJECT_ID":"2011-057A","EPOCH":"2026-09-12T03:42:55.388736","MEAN_MOTION":1.0026997,"ECCENTRICITY":0.0005559,"INCLINATION":0.0871,"RA_OF_ASC_NODE":61.4662,"ARG_OF_PERICENTER":106.8567,"MEAN_ANOMALY":254.5864,"EPHEMERIS_TYPE":0,"CLASSIFICATION_TYPE":"U","NORAD_CAT_ID":37836,"ELEMENT_SET_NO":999,"REV_AT_EPOCH":820,"BSTAR":0,"MEAN_MOTION_DOT":8.9e-7,"MEAN_MOTION_DDOT":0},{"OBJECT_NAME":"EUTELSAT 21B","OBJECT_ID":"2012-062B","EPOCH":"2026-09-12T03:44:32.733888","MEAN_MOTION":1.00269574,"ECCENTRICITY":0.000307,"INCLINATION":0.0698,"RA_OF_ASC_NODE":345.8953,"ARG_OF_PERICENTER":175.7872,"MEAN_ANOMALY":267.2364,"EPHEMERIS_TYPE":0,"CLASSIFICATION_TYPE":"U","NORAD_CAT_ID":38992,"ELEMENT_SET_NO":999,"REV_AT_EPOCH":5069,"BSTAR":0,"MEAN_MOTION_DOT":0.00000115,"MEAN_MOTION_DDOT":0},{"OBJECT_NAME":"EUTELSAT 70B","OBJECT_ID":"2012-069A","EPOCH":"2026-09-12T03:32:21.719904","MEAN_MOTION":1.00272202,"ECCENTRICITY":0.0003672,"INCLINATION":0.0654,"RA_OF_ASC_NODE":1.2202,"ARG_OF_PERICENTER":171.2698,"MEAN_ANOMALY":302.2602,"EPHEMERIS_TYPE":0,"CLASSIFICATION_TYPE":"U","NORAD_CAT_ID":39020,"ELEMENT_SET_NO":999,"REV_AT_EPOCH":5038,"BSTAR":0,"MEAN_MOTION_DOT":-5.9e-7,"MEAN_MOTION_DDOT":0},{"OBJECT_NAME":"EUTELSAT 117 WEST A","OBJECT_ID":"2013-012A","EPOCH":"2026-09-12T03:05:06.516096","MEAN_MOTION":1.0027248,"ECCENTRICITY":0.0002826,"INCLINATION":0.0458,"RA_OF_ASC_NODE":310.7223,"ARG_OF_PERICENTER":223.1895,"MEAN_ANOMALY":106.7094,"EPHEMERIS_TYPE":0,"CLASSIFICATION_TYPE":"U","NORAD_CAT_ID":39122,"ELEMENT_SET_NO":999,"REV_AT_EPOCH":4930,"BSTAR":0,"MEAN_MOTION_DOT":-2.8e-7,"MEAN_MOTION_DDOT":0},{"OBJECT_NAME":"EUTELSAT 7B","OBJECT_ID":"2013-022A","EPOCH":"2026-09-12T03:42:55.388736","MEAN_MOTION":1.00455773,"ECCENTRICITY":0.0002153,"INCLINATION":0.0695,"RA_OF_ASC_NODE":339.3013,"ARG_OF_PERICENTER":37.1158,"MEAN_ANOMALY":46.2755,"EPHEMERIS_TYPE":0,"CLASSIFICATION_TYPE":"U","NORAD_CAT_ID":39163,"ELEMENT_SET_NO":999,"REV_AT_EPOCH":4881,"BSTAR":0,"MEAN_MOTION_DOT":0.00000109,"MEAN_MOTION_DDOT":0},{"OBJECT_NAME":"EXPRESS-AT1","OBJECT_ID":"2014-010A","EPOCH":"2026-09-12T04:24:21.688704","MEAN_MOTION":1.00314873,"ECCENTRICITY":0.0004852,"INCLINATION":0.4762,"RA_OF_ASC_NODE":84.6027,"ARG_OF_PERICENTER":81.6859,"MEAN_ANOMALY":325.7187,"EPHEMERIS_TYPE":0,"CLASSIFICATION_TYPE":"U","NORAD_CAT_ID":39612,"ELEMENT_SET_NO":999,"REV_AT_EPOCH":4569,"BSTAR":0,"MEAN_MOTION_DOT":-0.00000109,"MEAN_MOTION_DDOT":0},{"OBJECT_NAME":"EXPRESS-AT2","OBJECT_ID":"2014-010B","EPOCH":"2026-09-12T03:54:24.288768","MEAN_MOTION":1.00273711,"ECCENTRICITY":0.0000721,"INCLINATION":0.0203,"RA_OF_ASC_NODE":244.1044,"ARG_OF_PERICENTER":45.1079,"MEAN_ANOMALY":176.5623,"EPHEMERIS_TYPE":0,"CLASSIFICATION_TYPE":"U","NORAD_CAT_ID":39613,"ELEMENT_SET_NO":999,"REV_AT_EPOCH":4537,"BSTAR":0,"MEAN_MOTION_DOT":6.3e-7,"MEAN_MOTION_DDOT":0},{"OBJECT_NAME":"EUTELSAT 3B","OBJECT_ID":"2014-030A","EPOCH":"2026-09-12T03:39:18.237024","MEAN_MOTION":1.00272532,"ECCENTRICITY":0.0004095,"INCLINATION":0.0667,"RA_OF_ASC_NODE":358.5176,"ARG_OF_PERICENTER":171.6767,"MEAN_ANOMALY":238.8854,"EPHEMERIS_TYPE":0,"CLASSIFICATION_TYPE":"U","NORAD_CAT_ID":39773,"ELEMENT_SET_NO":999,"REV_AT_EPOCH":4493,"BSTAR":0,"MEAN_MOTION_DOT":5e-8,"MEAN_MOTION_DDOT":0},{"OBJECT_NAME":"EUTELSAT 115 WEST B","OBJECT_ID":"2015-010B","EPOCH":"2026-09-12T03:05:43.954944","MEAN_MOTION":1.00272813,"ECCENTRICITY":0.0000207,"INCLINATION":0.0396,"RA_OF_ASC_NODE":3.9082,"ARG_OF_PERICENTER":74.4716,"MEAN_ANOMALY":204.303,"EPHEMERIS_TYPE":0,"CLASSIFICATION_TYPE":"U","NORAD_CAT_ID":40425,"ELEMENT_SET_NO":999,"REV_AT_EPOCH":4225,"BSTAR":0,"MEAN_MOTION_DOT":-4e-7,"MEAN_MOTION_DDOT":0},{"OBJECT_NAME":"EUTELSAT 8 WEST B","OBJECT_ID":"2015-039B","EPOCH":"2026-09-12T03:36:11.035008","MEAN_MOTION":1.00270774,"ECCENTRICITY":0.0003655,"INCLINATION":0.0672,"RA_OF_ASC_NODE":346.7834,"ARG_OF_PERICENTER":182.6631,"MEAN_ANOMALY":227.8042,"EPHEMERIS_TYPE":0,"CLASSIFICATION_TYPE":"U","NORAD_CAT_ID":40875,"ELEMENT_SET_NO":999,"REV_AT_EPOCH":4052,"BSTAR":0,"MEAN_MOTION_DOT":-8e-7,"MEAN_MOTION_DDOT":0},{"OBJECT_NAME":"EUTELSAT 9B","OBJECT_ID":"2016-005A","EPOCH":"2026-09-12T03:41:03.068736","MEAN_MOTION":1.00272814,"ECCENTRICITY":0.0002419,"INCLINATION":0.0517,"RA_OF_ASC_NODE":70.2204,"ARG_OF_PERICENTER":138.4427,"MEAN_ANOMALY":206.7553,"EPHEMERIS_TYPE":0,"CLASSIFICATION_TYPE":"U","NORAD_CAT_ID":41310,"ELEMENT_SET_NO":999,"REV_AT_EPOCH":3898,"BSTAR":0,"MEAN_MOTION_DOT":4.7e-7,"MEAN_MOTION_DDOT":0},{"OBJECT_NAME":"EUTELSAT 65 WEST A","OBJECT_ID":"2016-014A","EPOCH":"2026-09-12T03:19:50.102112","MEAN_MOTION":1.00273169,"ECCENTRICITY":0.0002191,"INCLINATION":0.0762,"RA_OF_ASC_NODE":311.6788,"ARG_OF_PERICENTER":214.4726,"MEAN_ANOMALY":169.7639,"EPHEMERIS_TYPE":0,"CLASSIFICATION_TYPE":"U","NORAD_CAT_ID":41382,"ELEMENT_SET_NO":999,"REV_AT_EPOCH":3839,"BSTAR":0,"MEAN_MOTION_DOT":-0.00000291,"MEAN_MOTION_DDOT":0},{"OBJECT_NAME":"EUTELSAT 117 WEST B","OBJECT_ID":"2016-038B","EPOCH":"2026-09-12T03:05:06.516096","MEAN_MOTION":1.00271804,"ECCENTRICITY":0.0000092,"INCLINATION":0.0347,"RA_OF_ASC_NODE":18.7297,"ARG_OF_PERICENTER":162.84,"MEAN_ANOMALY":98.8453,"EPHEMERIS_TYPE":0,"CLASSIFICATION_TYPE":"U","NORAD_CAT_ID":41589,"ELEMENT_SET_NO":999,"REV_AT_EPOCH":3753,"BSTAR":0,"MEAN_MOTION_DOT":-2.7e-7,"MEAN_MOTION_DDOT":0},{"OBJECT_NAME":"EUTELSAT 172B","OBJECT_ID":"2017-029B","EPOCH":"2026-09-12T02:44:53.454048","MEAN_MOTION":1.00271605,"ECCENTRICITY":0.0000103,"INCLINATION":0.0235,"RA_OF_ASC_NODE":141.2316,"ARG_OF_PERICENTER":258.7177,"MEAN_ANOMALY":164.4062,"EPHEMERIS_TYPE":0,"CLASSIFICATION_TYPE":"U","NORAD_CAT_ID":42741,"ELEMENT_SET_NO":999,"REV_AT_EPOCH":3462,"BSTAR":0,"MEAN_MOTION_DOT":-2.1e-7,"MEAN_MOTION_DDOT":0},{"OBJECT_NAME":"EUTELSAT 7C","OBJECT_ID":"2019-034B","EPOCH":"2026-09-12T03:40:25.629024","MEAN_MOTION":1.00271245,"ECCENTRICITY":0.0003142,"INCLINATION":0.0702,"RA_OF_ASC_NODE":178.8951,"ARG_OF_PERICENTER":337.3168,"MEAN_ANOMALY":257.0443,"EPHEMERIS_TYPE":0,"CLASSIFICATION_TYPE":"U","NORAD_CAT_ID":44334,"ELEMENT_SET_NO":999,"REV_AT_EPOCH":770,"BSTAR":0,"MEAN_MOTION_DOT":3.3e-7,"MEAN_MOTION_DDOT":0},{"OBJECT_NAME":"EUTELSAT 5 WEST B","OBJECT_ID":"2019-067A","EPOCH":"2026-09-12T03:37:03.452160","MEAN_MOTION":1.00271386,"ECCENTRICITY":0.0003121,"INCLINATION":0.0807,"RA_OF_ASC_NODE":320.6569,"ARG_OF_PERICENTER":210.2096,"MEAN_ANOMALY":229.5591,"EPHEMERIS_TYPE":0,"CLASSIFICATION_TYPE":"U","NORAD_CAT_ID":44624,"ELEMENT_SET_NO":999,"REV_AT_EPOCH":2529,"BSTAR":0,"MEAN_MOTION_DOT":-5.7e-7,"MEAN_MOTION_DDOT":0},{"OBJECT_NAME":"EUTELSAT KONNECT","OBJECT_ID":"2020-005B","EPOCH":"2026-09-12T03:40:25.629024","MEAN_MOTION":1.00268472,"ECCENTRICITY":0.000108,"INCLINATION":0.0657,"RA_OF_ASC_NODE":99.5241,"ARG_OF_PERICENTER":79.146,"MEAN_ANOMALY":234.7933,"EPHEMERIS_TYPE":0,"CLASSIFICATION_TYPE":"U","NORAD_CAT_ID":45027,"ELEMENT_SET_NO":999,"REV_AT_EPOCH":2520,"BSTAR":0,"MEAN_MOTION_DOT":3.4e-7,"MEAN_MOTION_DDOT":0},{"OBJECT_NAME":"EUTELSAT QUANTUM","OBJECT_ID":"2021-069B","EPOCH":"2026-09-12T03:52:02.017344","MEAN_MOTION":1.0027207,"ECCENTRICITY":0.0002227,"INCLINATION":0.0183,"RA_OF_ASC_NODE":73.4223,"ARG_OF_PERICENTER":101.4136,"MEAN_ANOMALY":282.0414,"EPHEMERIS_TYPE":0,"CLASSIFICATION_TYPE":"U","NORAD_CAT_ID":49056,"ELEMENT_SET_NO":999,"REV_AT_EPOCH":1880,"BSTAR":0,"MEAN_MOTION_DOT":0.00000111,"MEAN_MOTION_DDOT":0},{"OBJECT_NAME":"EUTELSAT KONNECT VHTS","OBJECT_ID":"2022-110A","EPOCH":"2026-09-12T03:39:10.747872","MEAN_MOTION":1.00274845,"ECCENTRICITY":0.0003086,"INCLINATION":0.0549,"RA_OF_ASC_NODE":105.292,"ARG_OF_PERICENTER":39.4767,"MEAN_ANOMALY":263.9029,"EPHEMERIS_TYPE":0,"CLASSIFICATION_TYPE":"U","NORAD_CAT_ID":53765,"ELEMENT_SET_NO":999,"REV_AT_EPOCH":770,"BSTAR":0,"MEAN_MOTION_DOT":3e-8,"MEAN_MOTION_DDOT":0},{"OBJECT_NAME":"EUTELSAT HOTBIRD 13F","OBJECT_ID":"2022-134A","EPOCH":"2026-09-12T03:42:10.460736","MEAN_MOTION":1.0027139,"ECCENTRICITY":0.0001954,"INCLINATION":0.0639,"RA_OF_ASC_NODE":293.3256,"ARG_OF_PERICENTER":68.2735,"MEAN_ANOMALY":58.1071,"EPHEMERIS_TYPE":0,"CLASSIFICATION_TYPE":"U","NORAD_CAT_ID":54048,"ELEMENT_SET_NO":999,"REV_AT_EPOCH":1424,"BSTAR":0,"MEAN_MOTION_DOT":7.2e-7,"MEAN_MOTION_DDOT":0},{"OBJECT_NAME":"EUTELSAT HOTBIRD 13G","OBJECT_ID":"2022-146A","EPOCH":"2026-09-12T01:59:27.811392","MEAN_MOTION":1.00271821,"ECCENTRICITY":0.0002108,"INCLINATION":0.0499,"RA_OF_ASC_NODE":232.7421,"ARG_OF_PERICENTER":307.3834,"MEAN_ANOMALY":213.8287,"EPHEMERIS_TYPE":0,"CLASSIFICATION_TYPE":"U","NORAD_CAT_ID":54225,"ELEMENT_SET_NO":999,"REV_AT_EPOCH":833,"BSTAR":0,"MEAN_MOTION_DOT":7.2e-7,"MEAN_MOTION_DDOT":0},{"OBJECT_NAME":"EUTELSAT 10B","OBJECT_ID":"2022-157A","EPOCH":"2026-09-12T03:41:18.046176","MEAN_MOTION":1.00270142,"ECCENTRICITY":0.0001688,"INCLINATION":0.0554,"RA_OF_ASC_NODE":102.8075,"ARG_OF_PERICENTER":3.1902,"MEAN_ANOMALY":310.5036,"EPHEMERIS_TYPE":0,"CLASSIFICATION_TYPE":"U","NORAD_CAT_ID":54259,"ELEMENT_SET_NO":999,"REV_AT_EPOCH":1389,"BSTAR":0,"MEAN_MOTION_DOT":5.3e-7,"MEAN_MOTION_DDOT":0},{"OBJECT_NAME":"EUTELSAT 36D","OBJECT_ID":"2024-059A","EPOCH":"2026-09-12T03:48:39.838752","MEAN_MOTION":1.00270314,"ECCENTRICITY":0.0000122,"INCLINATION":0.0019,"RA_OF_ASC_NODE":186.2013,"ARG_OF_PERICENTER":158.7178,"MEAN_ANOMALY":99.293,"EPHEMERIS_TYPE":0,"CLASSIFICATION_TYPE":"U","NORAD_CAT_ID":59346,"ELEMENT_SET_NO":999,"REV_AT_EPOCH":901,"BSTAR":0,"MEAN_MOTION_DOT":0.00000141,"MEAN_MOTION_DDOT":0}]